TimeMST,TemperatureF,Dew PointF,Humidity,Sea Level PressureIn,VisibilityMPH,Wind Direction,Wind SpeedMPH,Gust SpeedMPH,PrecipitationIn,Events,Conditions,WindDirDegrees,DateUTC
12:57 AM,54.0,36.0,51,29.62,10.0,SW,21.9,29.9,N/A,,Clear,220,2013-09-26 07:57:00
1:57 AM,52.0,35.1,53,29.61,10.0,SW,19.6,32.2,N/A,,Clear,220,2013-09-26 08:57:00
2:57 AM,51.1,37.0,59,29.61,10.0,SW,19.6,34.5,N/A,,Clear,220,2013-09-26 09:57:00
3:57 AM,50.0,39.0,66,29.62,10.0,SW,15.0,24.2,N/A,,Clear,230,2013-09-26 10:57:00
4:57 AM,50.0,36.0,59,29.62,10.0,SW,20.7,26.5,N/A,,Clear,220,2013-09-26 11:57:00
5:57 AM,48.0,36.0,63,29.64,10.0,SW,13.8,-,N/A,,Clear,220,2013-09-26 12:57:00
6:57 AM,48.9,34.0,56,29.65,10.0,SW,16.1,23.0,N/A,,Clear,220,2013-09-26 13:57:00
7:57 AM,52.0,32.0,47,29.64,10.0,SSW,24.2,33.4,N/A,,Clear,210,2013-09-26 14:57:00
8:57 AM,55.0,30.9,40,29.63,10.0,SSW,21.9,33.4,N/A,,Clear,210,2013-09-26 15:57:00
9:57 AM,57.0,30.0,36,29.64,10.0,SSW,24.2,34.5,N/A,,Clear,200,2013-09-26 16:57:00
10:57 AM,59.0,30.0,33,29.61,10.0,SW,27.6,39.1,N/A,,Clear,220,2013-09-26 17:57:00
11:57 AM,61.0,32.0,34,29.59,10.0,SSW,27.6,40.3,N/A,,Clear,200,2013-09-26 18:57:00
12:57 PM,63.0,28.0,27,29.57,10.0,SW,32.2,52.9,N/A,,Clear,220,2013-09-26 19:57:00
1:57 PM,63.0,30.9,30,29.58,10.0,SW,21.9,43.7,N/A,,Clear,220,2013-09-26 20:57:00
2:57 PM,63.0,34.0,34,29.57,10.0,SSW,36.8,58.7,N/A,,Clear,210,2013-09-26 21:57:00
3:57 PM,61.0,35.1,38,29.60,10.0,SSW,35.7,48.3,N/A,,Clear,210,2013-09-26 22:57:00
4:57 PM,60.1,36.0,41,29.60,10.0,SW,34.5,49.5,N/A,,Clear,220,2013-09-26 23:57:00
5:57 PM,57.9,37.0,46,29.62,10.0,SW,40.3,51.8,N/A,,Mostly Cloudy,220,2013-09-27 00:57:00
6:57 PM,52.0,43.0,71,29.65,7.0,SSW,25.3,41.4,0.00,Rain,Light Rain,210,2013-09-27 01:57:00
7:57 PM,48.9,43.0,80,29.68,9.0,SW,18.4,28.8,0.08,Rain,Light Rain,220,2013-09-27 02:57:00
8:57 PM,44.1,36.0,73,29.72,8.0,WSW,9.2,-,0.01,Rain,Light Rain,240,2013-09-27 03:57:00
9:57 PM,41.0,37.9,89,29.73,6.0,Calm,Calm,-,0.08,Rain,Light Rain,0,2013-09-27 04:57:00
10:57 PM,39.9,33.1,77,29.74,10.0,West,4.6,-,0.01,,Overcast,260,2013-09-27 05:57:00
11:57 PM,39.9,32.0,73,29.74,10.0,Calm,Calm,-,N/A,,Overcast,0,2013-09-27 06:57:00